GFSCGP_prec_cthk_000.txt.gz
RH
13 15 15 15 17 20 19 24 31 33 36 32 41 46 40 36 38 37 31 30 34 33 31 34 33 34 34 34 31 32 32 35 37 41 45 48 48 51 55 58 58 57 52 51
10 12 14 15 16 16 17 20 24 30 31 32 39 44 43 40 34 39 37 33 33 34 33 31 32 32 32 32 32 30 28 28 28 32 37 37 36 35 36 35 37 38 35 35
8 10 14 14 15 17 19 20 21 25 32 32 37 43 45 43 40 34 40 38 35 36 35 31 30 32 34 35 32 30 28 30 29 25 23 23 22 25 29 34 32 32 24 22
16 16 16 17 19 20 23 20 22 24 35 34 31 38 40 37 40 34 35 37 36 37 39 37 33 32 33 33 32 30 33 28 25 22 23 21 19 23 25 24 26 19 21 18
16 16 18 19 21 21 26 23 25 28 32 43 40 39 36 36 32 33 33 37 37 38 39 40 39 37 34 33 32 35 26 24 23 21 17 18 22 23 24 21 20 18 20 19
19 17 20 22 19 20 22 24 26 29 34 35 32 36 27 31 27 31 33 37 40 40 40 41 41 41 38 35 34 31 26 24 23 22 16 12 14 14 18 24 23 26 27 29
17 18 20 20 21 23 23 25 28 30 31 27 30 27 24 28 29 30 33 39 38 42 41 42 46 45 35 34 33 30 25 26 25 23 17 14 14 16 19 20 25 22 28 30
21 21 19 21 22 22 19 22 20 26 21 20 29 20 24 21 26 30 35 42 43 44 40 42 46 46 39 35 31 28 27 30 27 24 17 14 15 22 24 26 22 25 29 33
19 20 21 21 23 24 27 23 22 26 24 22 20 27 20 20 21 23 27 31 40 44 44 46 46 46 42 34 31 28 30 32 28 24 18 18 19 20 21 21 23 31 30 33
20 22 19 19 19 23 28 28 27 25 28 29 23 23 22 23 21 22 22 29 40 43 46 48 48 43 40 36 34 31 33 34 28 23 20 19 18 21 22 23 25 28 31 33
17 18 26 18 19 22 26 28 30 28 28 27 26 23 26 20 19 22 22 29 36 43 44 43 46 43 38 37 37 32 36 36 26 27 22 18 19 21 22 23 27 31 35 34
13 16 22 22 22 21 27 25 29 30 38 32 28 25 26 20 21 22 23 25 31 35 36 38 43 42 41 40 38 38 42 35 32 32 24 21 23 23 24 27 30 29 34 36
18 16 21 25 24 22 26 26 29 30 30 34 31 28 32 25 24 25 27 28 30 31 31 31 36 38 40 41 39 41 40 36 37 35 26 23 25 28 30 31 33 30 29 28
21 21 19 19 24 23 26 28 28 29 31 33 33 34 32 30 27 26 28 30 33 34 33 34 36 36 43 45 44 42 35 39 39 36 27 22 27 29 32 34 35 39 41 38
23 24 24 24 23 25 27 31 29 30 30 32 30 35 27 28 23 21 21 26 32 36 37 36 39 41 48 47 46 37 40 41 39 34 26 24 28 30 32 35 37 42 47 44
28 29 29 26 25 25 27 28 31 29 31 34 35 34 26 22 19 17 15 21 25 30 37 42 44 48 50 50 42 39 44 43 40 34 27 26 30 33 34 38 46 49 53 56
32 33 32 31 31 29 31 32 30 32 34 35 35 35 27 20 19 18 18 18 21 28 33 40 45 50 51 44 40 43 43 40 37 30 28 32 34 36 39 46 52 56 54 56
36 35 34 32 39 40 33 36 36 35 37 37 35 28 22 20 19 20 21 21 20 23 29 38 44 46 44 43 43 44 40 39 31 28 30 35 37 40 42 47 54 55 57 58
32 34 37 39 39 35 40 38 36 37 38 35 31 25 23 23 20 24 22 23 26 30 35 42 44 46 47 44 45 39 37 28 28 30 32 39 44 49 54 60 62 57 54 53
34 34 36 40 37 37 35 40 39 36 34 27 29 26 26 26 27 39 29 28 28 30 36 40 43 46 43 43 40 33 28 29 31 34 39 44 47 54 57 57 50 53 56 60
33 36 36 33 41 36 42 41 36 34 34 34 30 29 31 27 27 33 33 32 31 33 35 38 39 41 43 41 35 31 31 32 39 44 44 48 50 62 64 51 55 60 62 64
33 35 38 40 44 48 42 42 39 42 36 33 31 32 32 30 30 30 35 35 32 33 35 36 41 43 42 39 35 37 37 38 47 50 47 46 52 70 79 63 53 59 69 67
40 39 44 47 50 51 43 43 40 37 35 34 34 30 32 36 39 38 39 40 41 41 42 44 46 46 46 40 40 41 42 48 53 54 46 46 56 68 64 53 60 64 66 72
42 42 41 42 44 41 39 39 38 35 33 28 29 29 34 39 44 45 45 46 47 48 50 50 52 52 46 44 40 39 42 43 47 48 47 50 55 57 54 57 69 72 78 89
44 42 39 39 39 37 38 37 34 33 33 30 32 33 39 45 48 51 53 53 55 55 53 55 55 50 47 43 39 36 36 41 46 48 50 60 55 53 55 66 66 71 77 83
39 43 41 41 42 40 38 35 36 34 33 33 36 39 42 46 50 55 58 60 61 60 57 52 47 46 44 42 38 34 37 41 43 47 52 53 55 51 60 68 66 68 83 84

GFSCGP_prec_cthk_003.txt.gz
RH
13 14 17 20 21 22 24 25 31 28 38 38 41 54 29 36 36 38 38 35 39 40 40 37 39 38 42 44 38 36 35 33 35 39 46 49 47 51 52 55 54 55 53 52
17 16 17 18 19 21 19 20 26 29 33 34 41 48 39 35 36 36 39 36 36 38 34 36 33 36 40 37 38 37 33 29 31 37 41 39 37 37 38 37 35 32 33 31
13 15 20 19 18 18 19 18 17 24 31 31 42 46 46 35 32 34 35 38 38 35 36 35 32 33 36 35 33 33 33 33 34 30 31 28 25 27 30 35 38 35 28 24
11 10 12 15 16 14 18 19 19 20 29 32 32 32 51 48 34 29 31 33 37 38 35 36 35 33 37 36 33 32 27 28 28 24 30 24 17 24 30 26 28 19 17 20
11 14 13 14 18 19 22 21 20 21 23 30 37 35 46 44 61 37 26 31 36 39 39 41 38 38 39 37 34 37 32 27 23 25 19 21 26 26 26 23 22 20 23 23
17 16 14 16 19 19 27 28 28 29 26 28 34 47 28 42 54 58 47 33 31 36 39 44 45 43 41 40 37 36 30 23 26 28 24 17 16 17 17 21 19 26 24 32
20 18 17 19 20 22 22 26 29 28 29 29 28 25 33 29 37 36 40 38 34 36 40 44 45 46 45 44 37 35 30 24 27 30 21 19 16 16 18 23 24 22 27 30
23 19 19 19 21 23 23 23 23 28 23 22 26 28 23 22 29 36 31 47 46 44 45 46 50 49 49 48 39 33 26 26 32 31 23 17 16 20 23 28 23 21 26 28
20 20 20 21 21 23 25 22 20 18 22 22 22 23 25 29 20 17 25 32 51 45 42 46 52 56 54 50 42 33 24 31 36 33 29 26 24 19 19 19 21 28 28 34
18 20 20 19 20 22 25 24 22 21 23 25 23 23 22 33 31 26 21 21 28 48 43 44 48 55 55 50 43 36 31 35 40 35 36 33 27 21 22 23 25 27 29 31
18 18 21 21 21 23 23 26 26 24 29 27 24 24 26 30 30 29 29 24 26 37 42 43 48 55 53 48 44 40 36 40 44 37 36 30 23 24 26 26 30 35 35 36
17 19 22 22 22 21 21 23 25 27 30 27 25 26 28 30 30 31 29 31 29 38 41 42 50 53 50 47 45 41 42 43 47 41 38 34 29 21 24 27 30 31 33 34
17 17 20 22 24 21 21 22 24 24 25 37 34 31 30 30 32 27 27 29 36 35 36 37 47 50 48 46 44 43 45 49 52 41 42 39 35 24 25 29 33 35 35 37
20 18 18 19 20 24 27 23 24 24 29 28 33 30 37 34 41 32 26 28 31 40 40 36 36 43 47 43 43 45 51 53 53 44 42 41 39 29 27 35 35 39 39 41
18 24 24 22 19 20 21 24 23 26 26 30 28 38 37 38 38 28 22 22 26 31 39 42 38 43 44 45 48 51 54 56 48 46 44 41 39 31 33 33 35 41 45 48
24 26 27 25 22 18 20 22 23 26 26 26 26 29 35 37 30 24 25 22 22 25 33 40 45 48 47 49 54 57 59 53 46 46 43 36 32 35 38 39 42 44 46 49
33 27 30 30 26 23 23 23 23 25 27 30 29 33 36 37 33 28 22 21 20 22 29 32 41 45 48 54 59 60 58 47 46 44 38 31 31 36 40 41 45 49 50 54
43 36 31 32 30 31 26 25 27 26 30 33 36 34 38 35 32 27 22 21 21 21 24 29 35 44 50 56 60 56 49 48 46 38 32 30 31 40 44 45 50 54 51 53
35 39 35 34 35 33 37 34 28 29 35 37 38 39 44 32 28 24 30 24 22 22 24 28 32 44 51 55 55 52 50 46 38 32 31 31 37 43 48 51 53 59 61 58
35 35 35 38 40 37 44 37 40 39 38 36 39 45 42 34 34 43 40 33 28 24 28 35 40 49 51 53 51 50 43 39 33 32 34 42 45 49 50 49 59 80 82 64
36 34 33 32 35 36 32 42 43 49 48 47 42 38 36 37 40 39 37 34 31 28 31 36 41 45 47 46 43 41 37 34 33 36 41 48 54 58 57 54 56 90 76 54
45 40 35 35 35 38 38 40 45 50 47 42 39 37 37 36 38 44 42 37 35 29 30 34 37 39 40 40 41 38 39 39 42 44 47 54 60 64 66 53 48 66 51 50
43 54 49 51 52 53 48 47 50 50 44 41 40 38 36 34 32 42 58 52 44 38 38 41 44 44 46 48 49 50 50 49 52 50 53 58 68 60 62 56 68 60 51 62
51 41 38 47 57 53 51 55 53 45 42 39 37 36 35 31 33 42 59 59 54 51 51 50 54 59 60 59 59 57 58 54 53 53 53 56 62 60 63 64 66 60 55 74
52 55 48 42 52 45 52 44 43 42 41 40 39 35 32 35 37 55 61 60 62 61 65 65 69 72 64 63 64 60 56 52 49 47 48 51 58 60 60 56 57 55 57 67
49 52 50 56 52 50 49 42 41 39 39 38 36 38 38 43 49 57 58 64 66 69 81 73 70 76 63 63 58 58 52 50 45 47 49 54 59 54 49 52 46 57 67 66

GFSCGP_prec_cthk_006.txt.gz
RH
15 15 16 20 23 28 28 29 39 40 43 40 41 44 46 40 37 39 39 37 38 38 39 36 38 40 40 40 35 40 38 44 35 37 41 41 42 41 42 43 44 46 45 44
15 13 16 19 23 22 22 22 25 34 34 33 47 53 57 42 32 36 39 37 39 41 33 27 32 36 38 45 35 30 26 27 31 42 33 31 31 29 26 28 29 35 39 35
15 14 17 19 18 19 21 19 19 30 30 32 29 49 49 54 40 36 37 37 39 37 35 31 32 32 37 35 32 29 30 31 30 30 28 34 31 26 29 38 45 38 34 28
15 16 20 19 17 17 19 18 18 18 25 28 31 34 47 54 46 42 40 30 38 36 37 38 34 35 37 34 32 31 28 28 28 26 30 27 21 19 24 29 29 26 20 15
12 17 18 20 19 17 17 17 17 17 18 20 25 35 43 51 45 39 40 40 36 39 38 39 41 39 41 38 35 33 29 28 26 22 20 15 15 20 24 23 19 15 20 22
14 13 13 14 15 16 17 25 20 19 19 22 22 31 41 48 50 43 49 47 48 40 41 39 40 41 43 42 37 35 32 26 20 22 23 17 15 11 11 16 20 25 29 28
12 16 15 15 17 18 19 26 29 28 28 27 23 28 35 40 42 43 54 55 50 39 41 41 46 41 43 44 41 39 32 25 22 24 28 24 20 16 16 18 23 24 24 29
14 16 18 15 18 19 20 24 26 30 26 24 27 32 30 31 36 45 49 55 48 40 33 41 49 46 45 48 47 42 33 25 25 27 29 28 22 20 20 22 21 19 19 24
16 20 20 17 18 19 23 24 22 23 20 19 25 26 26 22 24 23 30 31 47 44 55 40 43 47 46 49 53 46 37 28 27 30 33 31 27 22 16 16 16 16 26 25
19 23 18 17 20 20 21 23 23 21 24 26 20 21 24 29 31 29 25 19 28 43 43 52 46 52 46 48 53 52 43 32 30 33 36 35 28 27 24 17 15 17 20 23
19 19 20 18 20 20 21 23 22 21 20 21 24 30 31 33 32 32 32 31 23 24 39 57 48 52 49 51 53 56 46 37 37 36 42 41 31 30 29 25 20 22 26 27
19 19 21 21 19 19 19 22 27 28 28 29 33 29 29 29 29 30 30 28 27 22 28 54 50 51 50 53 54 51 48 41 38 41 45 46 38 32 31 28 24 24 27 29
19 20 21 23 21 20 20 22 21 22 23 28 30 29 30 29 29 32 34 33 31 31 28 44 41 40 46 45 48 48 48 45 44 47 53 59 42 36 34 29 25 25 27 29
19 17 20 20 23 22 23 21 19 20 24 25 29 34 42 37 37 39 41 34 29 27 32 32 32 39 41 42 43 46 46 46 48 53 59 53 45 39 37 30 29 28 31 34
18 22 19 18 18 19 22 25 23 21 24 28 29 39 40 46 49 45 40 37 28 26 25 34 37 37 48 46 45 47 49 51 54 58 64 50 45 44 38 28 29 29 32 38
19 21 22 23 20 19 19 19 25 24 22 18 23 29 31 37 43 40 37 36 31 22 19 25 44 45 49 49 47 53 52 55 59 61 53 56 47 42 32 30 31 32 35 38
22 21 23 26 25 25 23 20 18 20 22 24 27 27 30 38 39 36 35 36 31 19 18 21 28 45 62 48 50 51 54 61 60 57 53 50 45 36 32 33 31 35 40 41
33 28 24 25 28 33 23 23 20 19 24 26 26 27 40 35 39 32 32 31 21 20 21 22 29 36 46 51 51 52 57 62 57 54 52 46 37 35 35 35 37 45 46 38
46 40 37 32 30 28 31 28 31 35 34 26 28 30 36 43 42 36 31 28 23 27 23 19 23 31 45 47 49 51 56 58 53 52 46 37 35 34 36 39 49 55 56 50
45 48 57 48 36 34 31 32 37 37 35 37 39 41 40 41 47 42 30 26 32 31 28 25 25 33 41 45 49 52 55 50 52 43 36 34 35 37 41 47 59 61 56 56
37 41 37 33 29 28 33 38 41 52 44 42 45 46 48 46 47 39 34 31 31 31 27 24 27 35 41 51 53 50 52 48 40 38 39 43 44 48 49 52 60 72 58 57
34 40 31 32 31 32 26 40 42 57 48 51 47 47 51 49 47 43 34 38 39 39 37 31 33 37 41 46 48 45 44 44 46 45 51 53 53 58 62 62 60 57 59 64
43 42 50 64 62 59 49 52 52 60 59 52 48 49 52 50 47 39 29 30 44 47 48 44 35 39 39 40 44 49 50 52 55 58 61 61 61 59 54 58 62 55 60 69
58 57 57 58 62 63 71 55 48 48 49 47 50 50 50 46 40 31 28 29 42 44 60 46 48 44 46 53 56 59 66 64 63 60 66 58 53 54 54 56 64 64 72 67
70 57 64 60 66 70 62 52 49 51 53 51 46 47 47 42 36 32 29 35 43 66 56 61 73 62 56 91 77 92 90 71 72 62 55 61 61 62 50 57 96 80 48 42
54 63 69 66 52 69 60 49 42 48 50 46 43 41 39 39 39 39 43 50 37 85 48 44 55 61 65 64 88 76 69 65 60 64 69 69 62 48 62 44 49 45 40 47

GFSCGP_prec_cthk_009.txt.gz
RH
11 15 19 18 18 26 34 34 39 47 46 46 43 46 50 54 39 33 38 32 32 33 34 34 32 29 34 34 35 35 35 36 36 34 34 32 34 33 35 35 37 41 43 40
10 14 16 18 22 27 32 37 36 35 41 42 45 50 49 49 51 36 35 34 32 32 34 35 31 29 27 29 29 29 32 28 29 28 26 26 27 24 22 25 27 33 37 35
11 13 14 17 24 25 26 25 27 32 38 40 47 53 52 39 48 49 42 42 40 31 32 33 32 32 33 32 29 22 20 21 21 24 22 24 23 22 26 30 36 36 36 31
11 11 15 17 21 21 23 21 21 21 37 51 40 52 52 49 47 50 46 47 45 36 33 34 31 34 35 32 30 23 23 24 23 24 24 22 21 21 19 23 29 31 31 26
12 12 15 17 20 18 18 20 19 19 22 33 33 34 38 47 46 49 55 53 51 42 34 30 31 32 37 35 28 25 25 27 26 24 21 23 20 16 17 18 18 18 13 16
13 13 15 16 19 19 18 17 19 19 19 23 21 26 42 41 40 42 46 54 53 49 37 33 31 35 37 38 34 29 31 30 30 28 20 20 19 17 16 17 15 11 18 21
13 13 14 17 18 19 18 18 26 29 25 21 20 21 31 32 38 41 43 43 48 48 46 38 31 32 36 40 41 35 35 34 28 26 26 23 23 19 17 13 12 15 18 21
15 15 13 13 14 14 16 19 32 33 31 29 27 30 30 32 35 36 35 36 40 43 46 59 50 45 37 38 37 44 39 37 28 28 28 27 24 23 24 22 19 16 17 17
15 14 14 16 15 15 18 22 22 28 30 33 28 24 28 29 32 38 39 36 39 37 45 61 57 48 41 42 38 43 49 39 30 31 30 31 29 26 27 25 25 20 14 18
15 19 15 18 19 18 20 20 22 29 30 33 25 30 33 31 31 33 38 37 36 40 46 50 60 47 44 43 43 41 52 51 42 35 34 33 32 32 31 28 25 19 16 18
17 20 20 21 20 18 21 22 23 25 27 29 30 33 31 30 32 30 29 29 33 39 46 49 44 47 54 36 46 48 51 61 52 38 36 35 36 39 39 35 33 25 19 20
16 21 24 22 19 18 18 21 25 34 27 29 32 35 33 32 31 31 32 31 29 29 32 31 30 37 40 36 53 48 46 54 52 39 35 35 40 39 42 39 39 30 25 23
18 22 24 26 21 20 20 20 22 25 25 28 35 35 34 33 32 32 33 35 36 27 27 31 33 34 36 41 46 37 41 46 51 44 33 37 44 43 44 43 39 30 26 25
20 23 25 25 25 23 22 20 21 23 26 23 28 31 35 36 35 37 36 37 34 32 34 33 30 36 40 40 30 33 39 43 45 46 40 40 49 46 46 49 38 30 26 27
19 24 23 22 22 23 22 24 21 22 23 27 26 33 35 35 38 39 38 42 42 39 39 39 38 33 32 36 33 34 39 48 47 49 45 49 52 53 44 39 37 29 29 28
19 24 23 21 20 22 24 22 25 27 23 20 21 26 26 29 34 37 36 37 36 37 35 37 39 38 36 39 36 38 42 52 55 53 48 57 51 50 40 39 35 33 32 35
22 25 25 25 20 21 24 23 22 22 23 25 27 26 26 32 36 39 36 35 38 36 33 28 26 30 32 36 39 47 61 76 60 55 58 62 48 48 42 40 35 33 35 40
26 27 25 25 24 28 22 23 22 26 27 28 30 32 31 33 36 37 37 36 35 34 33 26 22 20 24 32 38 47 50 64 59 57 62 66 51 49 41 38 37 36 38 43
32 31 39 34 28 22 20 18 22 27 33 30 29 32 35 32 36 39 39 39 38 36 32 27 19 19 20 23 30 36 42 53 58 56 65 55 53 45 43 40 41 43 46 51
37 35 40 47 48 44 26 24 30 32 42 34 33 36 43 41 48 48 47 44 43 40 29 19 16 20 22 24 30 36 49 58 58 66 62 54 48 44 41 43 45 49 49 55
53 50 49 57 57 46 37 47 42 51 41 42 39 40 44 50 51 50 46 43 40 35 28 20 18 22 24 30 35 44 56 64 68 64 54 51 47 45 50 51 52 54 53 65
61 57 50 50 58 61 51 42 45 47 40 43 44 41 44 46 52 48 41 41 39 37 32 23 23 26 33 37 42 52 61 67 73 62 59 53 56 55 58 60 64 66 66 88
67 76 70 67 72 67 72 54 41 36 42 45 45 42 44 45 49 50 47 40 36 34 34 41 46 41 46 46 55 62 61 66 86 79 62 66 68 61 71 65 70 80 77 76
65 69 75 67 71 69 65 51 55 52 47 50 51 49 52 49 44 44 42 41 35 33 35 40 46 51 73 81 69 65 70 75 81 86 75 76 66 70 77 77 78 69 65 64
59 66 60 61 63 59 62 59 59 59 58 63 61 55 50 50 52 52 50 44 40 33 34 39 48 44 52 59 67 75 73 72 70 80 75 74 68 69 69 60 48 48 60 53
59 63 68 71 70 67 72 66 60 59 58 57 60 56 50 52 55 54 48 41 35 35 40 44 49 51 50 61 75 86 78 70 75 66 67 62 54 51 47 44 52 54 53 50

GFSCGP_prec_cthk_012.txt.gz
RH
16 17 18 18 22 28 31 35 39 39 42 47 49 53 49 44 39 30 30 31 34 33 33 30 31 29 30 30 30 33 33 36 34 31 29 29 28 30 32 34 35 36 37 41
13 15 15 16 22 28 33 37 41 41 42 41 49 52 47 44 40 40 40 38 42 40 35 34 32 27 27 30 29 32 33 27 23 24 23 20 20 20 23 26 25 27 32 36
11 9 16 16 25 30 33 35 40 37 42 47 52 56 51 46 46 50 51 41 37 36 32 35 33 28 26 28 26 25 23 26 24 24 20 19 20 18 18 20 22 35 36 33
10 8 15 18 21 26 32 30 29 30 39 50 47 55 50 43 48 46 48 49 47 43 32 32 32 31 28 27 27 27 24 23 24 23 22 21 21 21 18 20 22 23 25 27
8 8 14 17 17 24 28 24 23 26 31 37 43 55 42 48 44 40 44 45 48 48 40 31 29 30 28 29 27 25 20 24 25 27 23 20 23 22 20 18 18 20 18 15
7 6 12 13 19 21 23 22 22 25 30 39 35 37 44 44 33 33 39 44 46 47 43 34 32 31 28 30 30 27 24 25 29 27 26 24 24 23 21 22 19 17 16 12
8 8 9 13 18 21 22 23 24 24 27 28 23 36 30 31 31 31 36 39 41 39 41 43 42 36 32 34 38 36 31 31 32 32 31 26 24 22 23 25 23 17 12 15
14 13 10 15 16 18 20 22 25 26 28 24 22 24 22 28 26 29 36 39 41 38 39 38 46 48 46 41 41 40 38 36 35 32 32 29 29 28 25 25 27 26 23 19
16 14 14 15 15 15 18 22 21 22 23 27 26 29 28 27 30 32 36 40 40 41 42 40 38 45 48 43 42 34 36 39 39 40 40 33 32 32 28 29 33 32 31 24
13 14 14 14 16 16 16 16 20 21 27 30 31 32 33 33 34 36 37 36 37 41 44 42 38 43 48 37 39 42 40 38 40 41 53 48 39 33 30 30 35 34 33 25
12 14 14 17 17 17 18 17 19 20 27 31 33 34 29 32 34 36 37 35 36 40 39 36 38 40 37 35 35 34 43 48 46 38 57 54 45 36 33 34 36 36 36 32
12 16 16 16 17 18 20 17 22 26 25 29 32 34 28 30 32 35 37 35 35 40 38 37 39 40 38 36 32 30 40 50 47 46 55 46 49 38 34 37 39 40 39 33
14 17 18 20 20 20 21 20 22 25 26 30 32 30 28 31 32 34 33 33 32 33 38 41 38 38 38 35 32 33 37 41 47 52 56 47 48 42 36 42 42 42 40 32
18 18 18 19 20 24 22 21 22 24 27 28 29 28 30 32 33 31 30 32 31 32 31 31 34 38 33 29 28 33 44 41 46 56 54 51 50 50 47 48 46 42 39 34
19 19 20 22 22 23 21 20 22 23 23 25 24 27 30 29 27 27 30 31 34 34 33 33 35 37 36 34 34 36 45 50 52 58 61 59 58 55 57 56 47 43 40 36
20 20 20 22 23 24 22 22 21 23 23 25 27 27 26 26 29 31 31 33 33 34 36 35 35 35 36 34 37 42 47 51 59 65 62 69 68 71 65 62 51 43 37 39
21 22 23 23 23 23 25 25 23 25 26 26 30 26 27 28 29 30 31 33 33 36 36 36 33 33 34 35 37 39 45 54 59 73 75 75 69 74 68 63 55 39 41 43
28 24 25 25 24 26 24 26 27 30 31 33 28 27 26 28 30 32 32 33 34 36 38 36 33 29 27 29 29 32 40 51 73 70 71 68 72 72 68 59 43 46 48 47
33 31 37 30 28 24 24 30 29 32 34 31 30 27 27 30 32 34 34 35 34 34 35 34 33 33 25 22 22 26 36 48 53 54 58 70 72 69 65 52 48 52 52 49
36 33 33 41 31 29 34 33 31 28 38 34 33 32 32 32 38 36 33 33 34 38 40 41 38 28 27 25 26 28 29 38 50 56 64 68 68 65 62 53 57 53 53 56
52 46 44 47 44 40 39 35 30 36 42 38 34 37 40 44 43 43 42 41 40 42 41 43 38 37 35 29 24 26 39 49 58 68 68 75 67 63 66 69 60 59 59 73
66 66 64 55 46 48 42 38 42 43 38 38 35 40 47 45 49 50 46 47 47 47 47 47 47 41 32 32 32 36 50 62 67 66 69 71 74 79 81 75 68 73 83 84
66 68 73 77 71 62 53 50 48 46 43 45 42 44 45 46 50 52 50 51 51 49 46 44 40 38 38 34 39 50 64 71 73 71 74 78 80 92 96 85 76 82 80 75
67 74 75 78 75 69 61 59 57 56 51 53 50 52 50 46 49 51 50 52 53 45 41 41 41 43 42 49 55 55 60 68 77 81 89 86 85 77 74 72 81 74 61 56
69 68 78 75 66 71 65 59 62 57 54 56 63 65 64 59 60 54 53 51 50 48 49 51 49 47 53 68 73 71 74 70 69 73 76 77 81 74 67 70 66 42 43 46
70 73 72 76 66 68 64 57 55 51 52 55 58 57 61 55 58 56 59 54 54 56 52 51 50 51 58 67 71 76 72 73 84 82 73 70 67 61 59 55 41 40 46 52

GFSCGP_prec_cthk_015.txt.gz
RH
18 19 21 26 29 27 39 41 43 42 45 48 51 50 47 45 38 31 26 28 28 27 27 28 30 33 35 34 32 32 36 36 37 37 33 33 32 30 30 33 37 37 37 42
17 18 20 25 29 30 34 35 50 46 47 50 54 52 48 48 40 39 34 35 35 35 28 29 30 36 35 30 31 31 32 34 33 27 25 23 22 20 21 25 27 29 30 30
14 16 20 22 27 31 30 31 40 43 48 53 56 57 54 50 46 47 46 45 43 36 30 26 27 28 33 28 30 29 28 29 26 23 23 21 20 20 18 20 20 21 31 35
12 17 20 21 24 28 31 31 34 40 47 50 48 62 55 51 47 44 45 46 51 48 43 32 26 27 29 25 27 26 27 27 25 26 24 22 20 22 20 19 19 22 22 21
12 14 18 19 19 24 28 31 32 35 44 49 49 51 45 49 48 40 37 44 50 51 51 42 28 26 25 23 24 26 25 26 28 29 27 26 22 22 24 23 21 21 22 22
9 12 15 16 16 25 29 29 33 32 34 47 42 42 44 41 36 33 37 38 45 49 45 45 42 37 33 27 23 28 26 27 27 28 30 29 26 24 23 24 27 27 21 18
8 10 11 16 16 24 27 29 31 33 42 46 34 45 36 30 31 29 30 32 38 44 42 41 43 44 35 31 28 31 32 30 28 28 29 29 27 28 27 26 27 29 27 23
10 9 10 10 15 21 26 29 31 29 34 31 30 44 27 25 26 30 33 32 36 39 40 40 41 44 41 45 41 45 44 34 33 34 31 34 37 34 30 26 26 29 29 28
12 10 7 10 13 17 24 27 24 26 29 29 30 26 22 25 26 30 32 33 34 37 37 36 37 45 54 57 54 47 43 43 36 34 36 43 50 52 46 34 31 29 31 33
10 11 8 8 16 17 23 23 25 27 27 28 26 23 26 23 28 29 33 32 34 36 35 35 37 39 42 47 45 47 52 46 40 41 36 42 47 56 51 43 35 33 35 37
12 12 9 10 14 16 24 23 23 23 26 27 25 24 23 24 26 30 33 31 32 33 32 33 36 37 34 35 38 41 43 40 44 44 42 40 53 55 50 45 40 34 34 33
18 13 13 11 12 15 20 20 20 21 22 26 24 24 24 27 29 32 31 33 32 32 34 35 37 40 39 34 36 35 41 42 47 51 51 41 51 61 55 50 43 39 34 34
22 17 17 16 14 17 17 18 18 20 21 26 26 26 24 26 28 29 31 31 32 33 35 37 38 42 37 36 37 37 38 40 44 53 49 50 53 63 58 50 48 49 41 42
26 20 14 14 14 17 18 17 21 21 24 24 26 23 25 25 28 28 28 30 28 29 31 34 37 36 36 36 38 37 37 39 41 59 50 50 52 66 58 51 51 53 49 51
25 23 19 11 15 18 17 18 23 23 21 22 21 26 25 26 28 27 27 30 29 26 28 31 33 32 33 37 39 38 37 35 37 48 56 54 52 69 72 65 61 59 53 54
27 23 23 15 17 18 19 20 23 23 23 23 24 26 24 23 27 28 27 27 25 26 26 29 33 34 33 36 37 36 36 36 41 57 66 80 90 86 81 79 70 63 54 58
28 24 23 21 18 20 22 24 24 24 24 23 25 24 25 28 28 27 26 27 26 29 30 32 35 38 38 40 38 32 33 36 39 53 73 79 87 83 76 73 77 65 57 62
36 27 25 21 21 25 20 25 23 27 29 27 29 26 26 27 27 27 27 27 29 32 33 36 39 39 38 36 30 28 29 26 33 43 52 77 74 83 75 72 77 65 62 64
40 34 35 27 25 23 29 33 33 33 31 31 29 30 28 28 30 30 29 31 34 37 39 37 38 37 34 32 32 31 30 29 35 40 55 58 65 71 67 73 75 63 68 65
43 40 32 37 28 31 37 41 37 36 36 34 31 30 31 30 32 32 32 35 38 40 42 42 40 38 37 38 37 36 35 33 38 46 59 68 78 76 77 79 74 69 71 63
61 54 48 43 43 42 43 45 39 40 42 36 32 32 33 33 35 35 37 39 41 42 42 40 41 43 42 41 43 46 43 37 40 52 59 74 76 74 75 78 83 90 86 79
65 64 68 58 50 50 45 41 45 46 46 42 38 36 35 35 37 38 37 39 41 42 44 45 49 47 45 46 48 39 39 39 45 51 55 62 67 72 76 79 76 86 87 89
65 64 69 70 60 54 52 50 49 48 47 42 38 38 38 38 40 43 44 43 45 48 49 53 47 48 53 50 44 45 49 43 50 59 66 69 70 72 76 76 79 80 77 78
60 65 76 74 63 59 55 55 52 50 48 46 44 44 43 43 45 44 47 50 49 50 50 49 50 50 49 49 53 58 53 50 59 68 70 70 69 71 72 72 72 80 77 79
58 72 76 72 71 66 61 60 58 56 57 54 52 52 52 50 54 52 54 57 58 61 58 54 53 55 61 64 65 60 56 57 66 66 67 68 76 74 77 69 68 74 74 73
67 67 70 72 65 61 65 66 66 72 69 64 58 60 55 53 50 49 51 51 60 62 63 60 59 63 59 61 59 55 57 61 60 62 66 63 61 61 58 57 64 68 68 55

GFSCGP_prec_cthk_021.txt.gz
RH
16 20 20 22 25 28 33 34 37 46 45 49 51 50 49 51 46 34 31 32 30 29 27 30 30 32 33 34 34 33 34 35 36 35 36 35 33 32 30 30 34 34 38 39
13 18 21 25 27 30 32 39 40 45 48 48 50 48 48 51 46 36 33 36 34 33 34 30 31 32 32 32 32 32 32 35 33 32 31 29 28 28 28 28 24 23 26 32
12 15 21 22 24 26 30 33 41 40 48 51 50 49 49 50 51 47 44 40 42 36 31 30 29 29 29 30 30 31 29 31 30 30 27 26 26 25 26 24 21 21 24 26
11 13 18 21 23 25 23 26 35 42 45 45 48 46 47 48 47 45 44 42 40 38 40 37 32 24 24 26 29 31 29 29 28 28 27 28 27 27 26 22 19 18 19 17
12 11 17 20 21 25 23 27 29 38 45 46 49 53 41 46 47 42 40 39 41 43 38 38 32 29 21 24 27 31 29 29 27 27 29 28 29 29 31 27 23 23 24 24
13 11 15 19 24 27 30 30 35 42 45 51 40 45 35 38 37 37 38 39 43 43 42 35 35 34 31 23 25 28 28 27 27 27 31 30 30 32 33 31 29 28 25 27
14 14 14 17 27 29 30 34 39 41 50 39 35 44 30 29 28 28 30 34 37 41 43 42 39 35 29 25 25 27 28 27 30 31 32 31 33 35 38 41 43 45 40 38
16 16 14 19 22 27 27 29 34 41 39 32 34 36 28 29 26 27 30 31 35 37 39 41 41 39 33 27 26 27 29 34 38 38 35 42 35 37 36 41 43 48 58 55
18 15 16 20 23 25 31 31 31 35 36 33 32 30 26 27 25 25 25 29 30 31 34 37 41 40 38 34 31 26 36 41 39 34 41 40 39 39 40 47 47 54 54 57
18 15 13 19 23 27 27 29 32 32 38 38 32 29 21 24 23 22 23 25 27 29 33 35 36 39 39 37 38 32 39 46 40 37 41 40 42 47 52 54 41 60 57 57
22 14 11 17 20 24 28 28 32 32 31 32 35 27 24 22 21 19 18 21 24 26 30 31 33 35 37 39 39 36 41 44 46 41 39 44 52 51 54 53 46 50 53 59
25 24 20 12 15 17 22 26 27 29 32 27 28 27 22 22 21 20 18 18 23 26 28 29 31 33 34 35 37 36 40 45 47 47 43 47 58 59 51 67 65 53 52 59
27 28 27 22 18 15 17 20 24 28 28 31 26 23 23 24 23 20 20 22 22 27 28 30 31 32 32 31 33 37 36 38 43 50 56 62 61 61 58 53 63 68 65 71
29 32 29 23 18 15 15 15 18 23 27 26 24 21 20 23 23 20 20 24 26 27 28 29 31 30 30 31 31 33 37 42 47 50 53 55 59 59 63 57 55 66 74 78
37 36 35 28 22 20 17 12 13 16 17 21 20 20 16 20 22 22 20 24 27 27 28 24 26 25 27 30 32 31 35 40 45 48 52 52 56 61 66 69 62 67 77 84
38 36 35 32 27 24 21 15 13 12 12 14 13 17 16 16 20 21 19 22 26 26 25 26 25 22 24 26 30 33 36 39 42 45 48 48 48 54 64 67 68 73 74 83
49 41 42 36 34 28 27 21 16 14 13 14 15 13 15 15 17 19 18 20 22 25 24 25 23 24 29 32 34 36 38 40 43 48 44 39 41 48 56 63 64 63 69 78
54 52 49 43 38 40 22 19 18 14 13 15 13 14 15 15 16 20 21 22 22 25 26 25 26 30 33 35 37 38 41 42 41 37 38 39 47 53 58 58 54 60 67 74
52 53 56 50 46 35 30 27 23 18 16 16 15 14 16 17 19 22 23 22 24 24 26 28 30 34 36 35 35 38 38 35 34 37 40 44 50 55 58 56 50 55 63 78
56 56 54 56 53 43 30 33 34 28 21 20 19 19 19 18 24 25 24 23 24 25 27 29 33 33 34 35 35 36 32 32 37 39 40 49 57 60 63 58 57 59 71 81
52 59 57 60 61 49 45 43 39 33 24 24 23 23 25 28 30 30 28 28 28 29 29 31 32 33 34 35 34 33 35 36 38 43 51 55 50 59 62 61 65 66 73 77
46 52 63 66 68 57 53 47 45 38 34 31 29 27 31 33 35 35 35 35 34 32 32 33 34 36 39 38 36 40 40 43 50 54 54 52 52 57 61 62 67 67 66 71
50 49 64 68 83 70 59 54 49 45 42 41 42 39 36 36 39 41 38 36 36 37 37 38 39 39 37 39 42 46 51 56 57 61 56 56 59 62 60 64 66 69 70 73
55 50 61 67 74 73 65 58 53 48 45 44 44 43 43 37 40 42 41 40 40 40 38 38 37 36 41 46 51 56 59 53 57 59 64 65 61 63 65 57 61 67 67 70
69 65 63 65 74 84 72 67 63 57 53 50 48 48 46 44 45 45 49 48 45 45 44 43 43 46 52 59 56 63 64 66 60 63 68 69 68 65 57 56 61 62 67 71
84 84 73 75 74 89 83 79 69 64 63 58 56 54 53 51 49 45 47 50 50 50 49 48 51 56 58 58 56 67 65 60 57 63 61 65 60 53 54 57 58 62 61 62

GFSCGP_prec_cthk_024.txt.gz
RH
10 15 20 23 26 32 37 34 35 39 43 43 42 43 44 42 41 35 32 29 26 27 29 32 30 32 34 36 35 34 34 34 36 37 38 38 38 46 43 39 39 38 38 36
10 12 19 24 27 30 32 34 34 41 44 44 45 42 42 42 41 36 32 31 31 30 32 31 33 33 33 34 34 34 33 35 34 37 35 38 39 38 37 35 30 28 25 28
9 11 17 22 25 30 32 33 35 41 43 42 44 42 40 39 39 40 38 34 38 38 35 33 32 32 33 32 31 32 30 31 33 33 35 33 32 32 31 29 28 27 22 28
8 10 15 20 23 26 30 29 35 43 48 46 42 41 40 41 39 41 42 43 46 42 40 47 40 33 31 30 30 30 28 29 29 29 32 31 32 34 34 31 28 26 21 24
8 8 11 16 20 23 24 30 35 41 45 46 51 48 42 40 38 37 40 41 40 44 42 39 37 35 36 28 27 25 28 26 27 28 28 31 30 33 34 34 30 23 25 24
10 9 8 12 19 21 24 31 32 38 41 44 41 47 41 41 34 34 38 42 41 42 43 42 37 35 37 32 24 23 25 24 26 27 25 28 31 33 36 36 37 36 38 38
11 11 8 9 15 23 25 29 38 41 42 41 40 42 34 38 35 34 35 37 41 43 41 43 38 34 33 30 23 22 24 25 28 29 29 28 28 33 37 43 45 48 47 46
16 13 10 7 11 17 22 25 33 38 36 38 40 37 29 31 33 33 31 30 36 37 37 38 38 38 35 33 27 26 26 25 28 33 34 30 34 40 39 40 45 42 46 51
18 15 12 10 10 16 20 27 27 30 31 32 31 33 28 28 32 27 25 27 28 30 32 37 39 38 39 35 30 24 25 25 30 38 35 37 38 40 49 46 43 45 43 45
20 21 16 14 11 13 19 22 31 30 34 34 30 31 28 28 27 25 26 23 25 27 31 34 37 37 39 38 36 29 25 27 35 37 32 37 41 44 50 55 49 50 48 51
22 23 19 18 13 10 16 25 28 31 30 31 32 27 25 24 26 25 24 24 23 25 27 31 34 36 39 38 39 39 31 30 33 39 40 40 39 43 46 59 56 50 47 55
24 31 24 18 12 11 14 20 27 31 34 32 30 27 27 26 23 23 23 25 23 22 26 29 34 35 35 37 39 40 38 31 33 42 44 44 40 44 42 49 57 55 62 57
27 30 36 23 17 14 13 17 22 31 29 32 33 30 28 26 21 20 21 21 19 21 24 28 31 31 34 36 36 36 37 36 45 50 52 51 48 47 51 50 50 51 56 55
27 32 31 28 18 15 15 14 19 24 29 29 30 32 29 27 22 19 20 19 20 23 27 28 30 31 34 35 35 34 36 39 45 47 49 51 58 59 58 48 50 51 50 53
25 28 33 28 29 28 26 19 15 18 20 24 24 28 31 29 23 19 20 21 21 23 29 28 31 33 32 32 33 32 36 37 41 45 48 51 54 56 58 55 52 55 55 53
34 37 36 34 27 30 30 28 25 18 16 18 21 21 25 28 23 21 17 18 22 22 28 28 29 31 31 31 34 35 36 38 40 41 43 46 49 47 49 51 54 58 60 56
37 36 42 38 39 36 37 31 28 26 19 12 14 14 17 18 18 17 16 14 17 20 21 25 27 31 31 30 32 34 36 37 38 38 42 45 44 41 43 46 52 55 57 58
44 47 42 41 43 45 32 32 31 28 25 18 13 13 14 12 14 15 13 12 15 20 21 24 27 31 31 30 33 35 38 38 36 39 39 41 39 37 42 47 53 56 59 61
38 53 49 52 46 39 35 36 32 29 25 22 17 18 13 17 20 17 14 13 14 17 22 23 27 33 31 31 35 35 37 39 42 40 39 39 39 43 46 52 59 58 61 62
42 47 57 57 51 50 55 51 41 38 33 24 22 20 17 17 18 14 14 13 17 20 23 25 27 31 33 33 36 37 39 39 37 35 39 40 41 46 52 60 62 58 59 58
53 51 51 52 55 47 60 51 42 42 36 36 25 21 19 18 17 19 17 17 20 25 26 27 29 32 34 36 39 41 39 38 42 42 40 42 45 46 52 55 59 61 62 64
47 48 49 52 62 58 58 49 43 52 46 40 34 28 24 22 23 22 24 24 27 29 30 31 32 36 38 40 42 42 42 41 40 39 41 44 48 55 60 59 64 64 65 65
58 51 52 59 64 59 55 52 48 51 51 53 42 37 33 32 32 34 32 33 36 37 37 35 36 38 39 38 38 41 43 41 39 41 44 47 51 56 64 68 71 69 71 70
67 62 52 51 52 52 49 48 48 56 55 56 54 50 47 42 40 46 40 38 37 38 36 36 37 37 38 40 40 41 40 41 43 49 54 59 66 58 72 71 70 74 75 69
73 64 58 59 55 50 51 49 51 58 62 61 58 59 60 55 54 53 47 47 41 39 40 40 42 38 40 41 42 43 44 47 50 56 61 64 65 69 73 72 70 69 65 64
74 74 62 60 55 55 65 68 72 67 71 67 58 55 54 52 52 54 53 49 49 44 44 44 44 46 46 47 49 50 54 60 62 63 66 63 70 68 65 57 52 54 57 60

GFSCGP_prec_cthk_027.txt.gz
RH
7 9 14 20 23 30 33 33 38 41 36 37 45 48 41 41 38 38 37 29 28 26 30 33 32 31 33 35 33 33 34 34 36 38 44 42 43 47 46 46 50 40 44 43
8 7 12 19 23 27 32 35 30 32 42 39 44 46 47 48 36 37 39 36 28 29 32 31 35 32 31 34 34 32 30 31 31 37 39 41 40 44 43 43 36 40 39 38
7 6 9 17 23 27 29 31 32 28 44 41 42 46 44 47 42 34 35 39 36 34 36 35 33 31 32 32 34 31 28 29 30 35 36 37 40 36 38 35 34 34 31 31
7 8 8 14 20 24 27 31 30 28 45 47 37 41 40 38 41 33 33 37 40 38 38 43 41 40 34 33 34 32 28 28 29 32 38 37 38 36 37 36 41 33 27 29
9 7 9 11 14 21 26 28 30 30 33 47 37 37 36 42 41 35 34 40 39 39 41 39 44 44 43 41 36 34 29 28 27 27 32 39 36 37 38 36 38 27 30 29
12 11 9 9 13 17 21 29 30 29 31 40 40 44 31 48 42 39 43 38 39 39 42 45 45 44 46 48 42 34 30 25 24 26 27 30 38 36 41 39 42 37 39 41
12 12 10 9 12 14 21 28 29 30 31 32 41 38 48 34 37 41 36 42 37 39 39 39 42 41 42 37 38 35 32 23 23 26 31 31 34 35 36 42 39 43 41 43
14 14 11 9 10 12 16 21 27 32 29 27 28 38 31 36 37 42 43 38 44 43 35 35 37 37 36 37 34 32 30 25 23 27 30 36 33 33 37 35 42 43 45 52
16 16 15 12 12 10 13 19 21 25 25 26 25 27 32 40 37 35 38 36 35 43 38 33 34 35 35 36 32 31 27 26 24 29 34 34 36 34 34 42 49 55 53 53
16 22 18 14 14 9 11 15 21 24 28 29 24 26 32 34 32 37 35 34 31 35 40 36 34 37 35 37 35 32 30 26 23 27 35 36 33 31 35 43 54 53 55 51
16 17 21 22 15 12 10 11 18 21 23 25 27 28 25 31 35 30 31 28 27 28 35 37 37 35 34 36 38 34 33 31 27 29 34 35 34 36 38 43 46 49 53 52
18 18 24 21 19 18 17 12 16 22 26 25 24 22 25 25 30 31 28 27 26 26 29 35 38 36 36 36 38 37 37 36 30 31 31 35 35 38 42 41 43 49 51 49
21 20 28 27 23 21 17 13 13 16 21 27 28 24 25 28 27 28 29 27 27 29 29 29 37 38 37 38 37 38 36 37 37 30 31 38 37 39 39 37 41 43 43 47
23 26 23 25 22 20 22 18 15 13 18 23 26 27 27 27 30 29 30 28 29 30 25 24 24 28 35 36 35 37 39 40 40 37 37 41 42 42 42 44 44 41 41 45
22 26 26 21 29 28 19 18 16 16 16 20 22 26 28 29 28 31 30 26 24 25 26 25 27 30 33 35 36 36 40 39 42 39 40 42 44 45 50 53 53 52 50 51
22 25 28 35 32 32 28 18 16 15 16 18 19 22 26 27 32 33 30 24 26 25 25 25 29 32 33 34 35 36 37 37 37 39 42 44 45 46 50 53 55 58 60 60
26 26 28 29 34 32 30 27 23 22 19 16 17 19 23 25 26 28 31 32 24 21 19 24 25 32 33 36 37 37 34 37 36 37 36 41 45 46 49 52 52 52 53 52
35 37 36 39 40 43 25 28 26 26 25 24 22 19 18 20 19 25 26 23 21 19 18 17 26 27 31 33 38 40 38 34 35 37 40 43 44 47 51 47 44 47 50 56
37 42 41 41 43 38 34 33 32 31 29 27 27 26 25 23 19 20 16 15 16 17 17 15 23 31 32 33 37 40 40 36 37 38 42 44 47 47 44 42 42 49 54 56
44 50 49 46 42 39 33 47 36 36 37 36 36 33 28 26 23 15 17 13 16 20 20 20 22 35 31 33 37 42 42 41 39 43 46 48 46 46 45 44 48 50 55 60
39 45 50 51 48 38 55 49 47 44 40 39 35 33 34 33 25 23 27 28 24 22 16 15 20 24 27 32 38 41 43 45 45 46 46 45 45 47 49 49 49 50 56 60
40 40 42 46 49 57 57 60 51 55 57 44 38 37 31 29 32 26 36 34 26 23 23 23 25 26 32 35 38 42 45 48 46 43 44 46 47 51 51 49 51 55 59 67
38 34 39 45 42 55 69 67 57 52 46 43 38 42 35 33 40 43 37 29 28 29 25 29 32 34 38 43 43 45 48 44 43 45 49 54 55 53 50 50 55 59 65 70
47 41 48 64 66 62 52 56 56 53 42 45 47 43 42 43 44 43 41 41 42 39 41 46 45 43 46 50 47 43 44 47 48 50 50 52 54 51 52 55 60 66 68 73
90 82 59 74 77 66 63 60 56 47 44 48 48 48 55 55 56 55 49 49 52 53 55 57 57 50 50 46 43 44 44 47 50 50 52 54 54 55 59 64 68 62 68 71
92 97 88 77 68 67 58 52 45 46 47 52 51 62 60 69 75 70 65 62 65 67 65 62 56 47 46 45 45 47 49 51 52 52 55 56 59 62 68 70 66 57 55 50

GFSCGP_prec_cthk_030.txt.gz
RH
10 9 12 15 19 22 27 31 31 41 48 40 46 47 64 45 45 40 34 30 29 28 28 31 31 35 34 34 34 31 31 32 35 36 33 32 37 40 44 40 42 42 62 44
11 9 7 13 17 22 24 32 34 36 41 43 42 46 47 56 42 36 34 29 26 28 30 27 30 31 29 30 30 28 27 29 29 31 31 32 32 36 34 37 38 35 33 40
9 8 7 9 14 21 23 31 33 39 41 38 39 40 42 51 46 38 31 33 28 28 30 31 29 28 27 27 27 25 25 26 25 28 30 34 40 38 48 43 49 40 30 29
10 9 8 7 11 16 20 23 31 35 42 40 37 39 37 44 44 38 29 30 32 31 31 33 32 32 29 27 28 26 25 24 24 26 34 30 31 32 34 32 33 34 31 26
10 9 9 9 7 14 17 22 28 30 37 44 45 46 41 40 46 48 37 30 30 33 34 35 37 40 38 35 30 29 26 26 25 25 29 34 33 28 35 34 34 32 27 23
11 10 8 8 8 12 16 23 25 27 29 38 45 40 39 40 35 44 47 35 32 33 34 35 37 39 42 43 42 36 31 27 26 25 25 31 37 33 38 38 34 33 32 31
11 11 11 8 9 10 15 24 27 28 28 29 33 47 39 42 40 38 45 46 41 33 33 35 35 37 38 40 39 39 35 32 27 25 22 26 31 37 35 37 36 37 36 37
14 14 11 11 9 11 12 19 24 32 29 28 24 29 37 35 39 41 45 46 52 49 41 38 35 36 36 37 38 36 34 31 29 24 22 26 28 35 30 36 37 46 50 49
14 15 13 11 11 10 11 17 17 23 24 26 25 25 24 30 39 47 45 42 42 49 54 43 35 32 34 36 37 37 36 32 30 27 23 25 29 32 30 31 46 53 53 54
14 17 16 14 13 10 10 12 16 19 28 29 24 24 26 31 32 46 42 40 35 35 50 49 36 31 31 34 36 39 36 33 31 27 23 23 28 31 27 32 37 45 52 50
14 17 18 20 15 13 13 11 14 17 20 24 26 25 22 26 33 35 36 35 37 33 33 38 37 31 28 31 32 36 37 35 33 30 23 24 30 30 30 36 39 43 47 52
18 17 18 19 21 18 13 12 10 15 21 20 21 22 21 26 28 32 32 33 33 25 25 30 36 38 34 30 32 33 37 34 33 31 25 25 26 31 36 38 40 42 45 46
24 21 20 19 19 21 19 16 14 11 14 21 22 21 20 25 37 37 37 31 25 24 30 31 37 38 39 33 32 34 37 35 32 34 28 26 26 32 36 37 36 38 42 44
25 24 22 19 19 21 23 18 18 16 14 14 20 21 19 23 28 33 35 31 31 27 30 31 32 45 46 35 32 35 36 37 34 34 30 27 29 33 36 37 37 37 40 42
27 28 26 23 21 24 23 22 20 19 15 15 12 20 20 22 30 30 33 32 30 27 30 31 29 28 31 37 28 35 38 35 37 36 33 28 28 33 38 40 40 43 46 47
28 29 29 27 24 25 26 24 21 21 20 14 15 14 18 21 24 32 35 35 32 29 26 27 28 24 22 26 31 34 38 37 37 37 35 33 33 34 39 42 43 47 52 52
32 29 32 31 28 27 28 25 25 20 19 19 17 15 15 18 24 26 31 34 36 34 27 26 31 26 25 27 31 36 37 37 37 36 36 36 36 35 39 43 51 52 53 54
36 37 32 32 32 36 22 24 27 27 21 17 16 15 16 17 21 23 26 31 34 35 32 28 26 27 26 29 31 34 39 40 39 38 38 37 37 39 42 48 52 53 52 50
35 37 37 36 37 29 30 31 30 27 27 25 23 22 19 17 18 20 26 30 28 30 35 34 29 23 28 25 29 31 35 38 42 41 40 39 41 44 47 52 53 53 50 52
34 42 40 38 38 35 30 29 31 31 32 26 27 27 28 30 28 19 20 23 25 26 29 30 26 24 21 25 30 29 29 37 41 43 43 45 46 49 53 55 56 53 54 56
36 40 43 44 41 38 35 37 45 44 42 44 41 39 35 33 34 35 33 30 23 22 24 21 19 20 19 25 34 27 32 33 41 47 47 47 50 54 57 59 53 53 63 65
51 46 43 42 48 46 39 45 46 53 51 49 49 44 38 35 33 31 31 28 29 25 22 21 21 23 33 30 46 32 35 37 43 50 52 52 54 58 59 52 49 53 59 61
60 50 51 52 49 58 53 66 53 48 46 44 48 43 35 29 29 27 37 37 39 36 36 35 29 35 39 37 37 32 35 42 49 55 57 56 58 54 50 54 59 64 61 58
60 65 58 47 47 49 58 58 62 58 52 55 53 48 42 33 35 44 44 45 42 39 41 40 41 36 34 37 42 41 43 47 54 58 58 54 48 50 54 56 59 61 61 63
96 83 75 57 50 57 58 58 62 60 56 55 55 52 47 40 40 45 48 44 47 47 45 44 43 39 44 45 47 50 54 56 58 52 49 52 53 53 55 58 62 64 65 70
94 93 85 75 82 79 67 64 61 60 54 56 55 54 50 43 45 54 59 54 49 48 46 42 43 44 52 58 63 69 71 56 48 50 52 54 55 57 59 64 64 66 67 67

GFSCGP_prec_cthk_033.txt.gz
RH
9 12 12 15 18 19 22 24 27 36 43 47 51 52 46 41 40 29 30 28 26 28 30 33 33 32 31 31 30 29 29 28 29 32 32 30 31 36 44 38 37 37 39 53
10 10 9 12 14 17 21 23 25 37 40 42 47 49 44 35 35 29 29 31 24 24 26 29 31 31 27 27 26 27 26 27 26 29 31 31 27 31 30 35 36 34 37 33
10 8 8 9 13 15 19 21 24 38 49 50 51 51 50 41 37 34 31 31 24 22 22 24 26 26 26 25 24 24 24 25 25 25 28 30 30 32 35 35 39 48 35 33
11 8 10 9 9 12 15 21 26 37 42 51 50 56 55 49 44 43 36 36 30 22 26 25 24 25 24 23 23 23 24 25 25 25 26 27 26 35 32 38 36 28 28 26
9 10 9 10 7 8 10 22 25 32 38 45 48 60 55 50 53 51 48 44 37 24 25 27 28 27 27 28 25 23 24 24 24 23 22 23 27 29 31 34 32 29 30 30
10 11 11 9 9 7 8 16 24 29 32 48 37 59 52 50 50 61 52 45 41 32 22 28 29 30 33 34 36 32 27 27 25 23 21 21 24 29 31 30 32 29 31 33
11 10 11 10 9 10 7 12 23 30 32 36 38 43 39 38 37 43 46 46 44 40 28 32 33 35 36 36 35 36 32 29 28 27 19 19 23 31 30 33 34 29 38 41
16 14 10 10 9 9 9 10 16 30 31 29 30 45 34 31 32 39 45 48 50 47 38 38 37 36 35 34 34 32 32 30 28 28 22 18 21 28 36 33 31 41 46 49
17 15 10 10 11 9 11 9 11 19 24 29 26 27 28 28 37 38 37 42 44 42 46 48 46 37 34 34 32 32 32 31 30 27 25 22 20 27 32 29 33 46 48 49
16 20 13 13 13 11 9 10 12 15 20 25 21 25 28 32 36 36 36 34 38 42 44 56 53 44 34 29 30 31 33 33 31 31 27 23 20 26 29 28 35 43 49 50
16 18 17 16 15 13 13 11 12 14 16 21 26 21 26 30 33 35 33 34 35 38 39 42 39 37 34 29 29 31 31 36 35 33 29 23 22 27 27 28 33 40 47 44
20 18 19 17 18 16 13 11 11 13 18 20 20 17 23 24 29 30 29 33 34 34 32 45 42 37 34 32 29 31 32 34 35 32 30 24 22 25 25 31 37 38 38 40
24 20 21 18 18 18 18 17 13 11 13 15 21 16 14 24 28 33 40 39 40 40 37 38 36 40 34 36 37 30 33 33 35 33 31 26 23 24 26 32 39 39 37 37
30 24 20 19 16 20 21 20 19 15 12 13 11 13 13 22 24 26 30 33 40 43 40 37 37 40 39 36 36 29 30 36 36 33 30 28 23 23 26 33 35 36 38 40
27 29 25 21 21 18 19 23 22 17 14 14 11 12 13 14 21 24 31 32 33 36 35 34 32 33 38 37 36 33 27 32 35 35 31 27 25 23 26 30 35 37 36 38
32 32 29 29 25 23 19 20 22 22 19 16 14 13 12 14 18 22 29 30 33 35 32 34 34 35 36 35 31 30 28 28 32 35 33 31 26 25 24 28 35 38 40 42
38 36 35 30 28 30 30 18 21 24 23 21 18 17 13 12 16 21 25 36 27 35 36 34 33 32 32 33 30 26 25 27 30 34 36 35 31 27 26 26 31 38 41 47
39 39 39 36 33 38 25 21 20 24 26 25 23 21 18 14 13 18 20 28 33 34 35 36 34 34 32 30 29 28 27 27 30 34 35 35 35 32 31 33 33 39 44 50
39 41 42 40 37 30 28 27 25 27 28 26 26 23 19 15 13 16 17 18 22 32 34 37 39 36 34 33 29 29 27 27 28 31 35 35 36 37 36 39 43 48 54 62
38 41 44 43 40 35 28 29 26 28 34 30 28 26 22 19 19 17 19 18 19 21 26 34 38 35 35 36 33 29 28 30 31 31 34 36 38 39 39 44 49 56 62 66
41 45 49 49 39 32 30 27 27 38 35 37 32 32 32 32 29 24 22 20 20 22 21 27 28 32 34 36 36 33 30 27 30 36 35 41 43 44 45 47 53 61 66 70
67 73 59 48 46 42 30 30 39 50 46 44 39 33 33 33 32 29 25 21 22 24 26 26 27 29 29 29 32 34 29 24 27 35 46 43 47 48 50 54 61 68 68 64
75 74 84 64 53 53 45 44 49 53 47 46 43 35 34 32 31 31 30 31 30 27 26 29 27 25 28 30 30 29 30 33 35 43 51 48 51 55 60 63 66 71 64 59
76 83 78 72 60 57 50 58 62 60 58 58 57 47 45 41 38 38 36 36 36 36 35 33 30 26 28 31 33 34 39 45 46 52 57 54 54 64 69 72 69 57 57 62
85 91 83 70 67 70 69 62 59 60 67 59 56 56 52 45 44 41 37 35 36 35 38 36 32 35 34 35 39 40 40 46 52 60 63 64 64 70 73 65 57 59 65 67
94 97 93 81 75 75 80 72 71 62 61 64 63 55 56 52 50 50 46 39 36 41 45 43 40 39 42 44 48 50 50 52 63 65 67 70 74 67 57 56 59 63 63 64

GFSCGP_prec_cthk_036.txt.gz
RH
9 13 15 17 22 24 30 31 30 30 35 42 46 49 51 52 52 42 34 29 27 19 23 27 29 31 34 35 34 31 29 32 33 33 32 30 33 35 39 37 42 43 40 41
10 9 10 13 17 20 26 27 30 31 35 46 50 49 50 51 44 45 37 32 27 26 21 25 28 30 32 31 31 30 27 28 30 30 30 31 29 26 29 32 34 37 37 37
9 8 8 10 12 16 20 24 28 28 33 46 54 55 53 52 51 46 43 31 28 26 18 19 23 23 25 26 26 25 24 26 27 28 29 30 30 25 28 29 30 30 35 33
9 8 10 9 10 12 15 18 26 28 32 46 48 51 56 50 50 46 41 37 33 29 22 21 20 20 21 21 23 24 24 24 24 24 26 26 25 22 25 29 32 34 34 29
10 9 9 10 8 9 9 16 26 29 32 42 44 48 47 49 44 45 38 42 36 33 28 22 24 24 18 19 20 21 23 23 22 22 23 23 24 23 26 29 37 32 27 31
11 12 12 10 9 9 8 13 22 28 34 40 38 40 47 48 43 42 42 44 42 39 38 27 25 28 29 29 29 30 32 26 24 22 21 21 20 22 26 31 31 28 27 35
14 13 12 12 12 10 10 9 18 27 31 29 34 41 37 37 40 38 39 41 45 43 39 31 26 30 34 35 35 33 33 33 26 24 24 22 18 19 26 29 27 25 29 41
19 17 12 11 13 12 12 9 12 20 30 30 29 41 32 33 35 36 39 39 41 41 43 37 27 30 33 34 35 34 33 34 33 25 24 25 20 19 25 30 27 29 38 43
21 19 13 11 11 12 11 12 9 13 20 28 28 30 26 31 34 36 38 41 39 38 39 42 41 36 31 31 32 33 31 30 32 30 26 26 22 19 23 28 26 36 46 46
17 19 15 12 12 13 12 11 12 12 13 18 21 24 25 25 28 31 34 37 38 37 41 41 42 38 36 29 30 34 34 31 30 32 30 27 23 20 22 30 26 36 43 45
17 19 16 15 15 14 14 13 12 11 11 12 17 14 17 18 26 33 34 33 35 37 39 38 42 44 41 33 31 32 35 35 33 36 36 31 25 23 23 26 31 35 40 45
19 20 19 15 14 15 14 14 13 13 14 15 11 11 11 16 25 29 31 35 35 37 44 42 39 40 35 30 29 30 32 34 34 35 35 34 27 24 27 24 25 33 41 43
24 19 20 19 17 17 18 16 14 13 12 11 17 14 10 12 22 30 34 37 38 45 45 43 40 41 35 32 33 35 33 30 35 36 36 35 30 24 23 22 27 33 36 37
31 26 22 18 17 15 18 17 16 15 14 12 11 12 10 12 23 28 27 30 38 45 44 42 42 44 41 37 37 41 40 36 34 35 36 34 32 26 22 23 29 35 34 34
39 34 25 21 19 20 17 18 17 16 13 13 11 12 10 8 18 24 29 28 34 34 38 36 40 40 37 38 37 42 43 35 36 35 35 32 33 31 24 22 28 35 35 34
46 41 35 28 22 19 20 18 18 18 16 15 16 15 14 10 10 19 22 25 29 38 38 34 30 37 35 39 38 42 41 31 33 35 33 34 34 32 27 24 24 31 34 38
55 49 43 38 27 23 26 15 19 20 19 17 18 18 17 15 11 14 20 23 32 34 32 33 34 35 35 34 36 38 36 34 35 34 35 35 35 35 31 29 26 25 32 37
55 52 50 43 36 35 16 19 18 20 21 21 20 20 19 17 15 10 13 16 21 30 32 30 32 35 37 35 35 36 36 35 31 30 33 35 35 37 37 33 30 26 26 31
53 54 52 49 49 33 27 23 22 22 22 23 22 23 22 20 20 17 12 13 17 27 35 31 33 34 37 36 37 38 38 34 32 31 32 34 36 38 38 38 34 31 29 29
49 49 50 50 48 43 30 28 26 25 27 27 24 23 26 26 22 20 15 13 17 21 30 27 34 37 32 33 38 37 36 34 34 32 31 30 36 39 39 41 40 38 37 38
72 68 62 55 54 42 35 30 30 32 30 28 26 25 26 28 25 21 18 14 15 16 17 20 23 28 33 41 41 42 39 36 33 33 31 33 32 35 41 44 47 45 47 50
86 89 79 65 64 50 49 40 32 35 34 33 29 29 29 29 29 26 22 18 16 16 17 17 18 21 27 30 35 37 39 36 36 34 36 31 31 33 35 41 48 53 58 61
88 83 74 73 83 81 72 62 55 45 36 35 33 34 36 34 35 34 29 24 22 21 21 22 22 20 20 22 24 27 28 31 32 32 37 36 36 33 35 42 48 58 63 66
89 79 78 71 80 80 78 68 60 54 47 47 41 38 37 38 37 38 37 34 29 28 25 25 26 25 23 22 21 21 23 26 31 32 34 36 40 38 41 48 46 53 66 72
84 86 79 78 83 81 85 78 71 64 57 54 51 46 46 43 42 41 40 38 36 34 30 26 25 27 26 27 27 28 28 27 31 35 43 44 45 51 60 64 56 55 69 88
83 88 82 81 90 95 97 88 74 64 64 58 64 60 58 55 52 50 46 41 38 34 32 32 30 32 32 31 31 32 34 35 33 42 53 65 70 79 74 93 90 82 86 75

GFSCGP_prec_cthk_042.txt.gz
RH
13 16 17 17 20 22 25 30 35 39 37 38 42 42 50 56 52 52 58 52 44 30 22 28 29 29 31 32 32 31 29 29 27 27 32 36 34 36 37 40 43 45 48 47
14 15 13 16 19 21 25 26 30 36 36 34 36 40 48 52 48 50 53 57 47 38 26 24 27 28 29 29 29 31 29 29 26 30 34 36 37 36 36 37 38 38 38 40
12 12 12 13 16 18 22 25 27 33 37 37 37 38 46 51 48 49 50 52 53 42 38 24 23 23 23 27 27 27 28 29 30 30 33 34 35 34 33 30 30 31 33 36
14 11 12 12 14 15 19 21 26 31 35 34 36 44 42 46 50 46 47 49 48 40 34 31 25 22 19 20 24 26 27 28 28 31 32 31 28 28 27 27 28 29 30 32
14 12 12 13 11 12 14 18 24 29 34 35 31 39 32 44 52 46 43 38 38 38 37 28 22 19 16 16 19 21 24 27 27 27 29 29 28 27 28 29 28 26 28 31
13 12 12 10 10 10 11 15 20 27 30 33 28 30 28 36 39 50 42 34 40 39 36 30 25 20 22 18 17 19 21 22 25 26 27 27 26 25 27 27 28 26 28 29
15 14 12 11 11 10 11 14 20 23 30 23 24 33 18 25 30 34 34 32 33 36 38 37 30 26 25 27 25 17 19 20 23 25 26 26 26 25 26 25 24 25 26 29
21 20 15 12 10 10 12 13 20 22 24 19 24 23 19 19 28 35 34 42 40 37 43 48 46 29 24 25 28 29 21 20 22 22 25 28 28 26 25 26 24 24 25 31
23 20 17 15 14 12 14 16 11 14 17 18 20 18 16 19 23 31 35 38 35 32 40 42 47 39 28 25 26 28 32 30 27 26 26 32 34 30 25 22 24 25 26 31
23 23 19 18 18 16 14 12 16 16 18 19 16 15 16 16 20 26 32 33 31 35 40 42 44 43 33 32 28 30 34 37 34 34 30 30 33 33 27 24 22 22 25 31
29 25 21 20 20 18 18 17 16 14 16 16 17 14 11 12 13 19 25 32 32 31 35 38 41 45 39 36 34 33 32 35 35 33 30 29 32 36 35 26 23 22 25 28
39 33 27 23 20 19 18 16 16 18 17 16 15 13 9 8 9 15 23 31 29 28 29 32 36 42 46 43 44 34 32 37 33 32 33 30 31 35 37 31 23 22 25 25
41 41 30 26 24 22 21 19 18 17 16 15 16 13 8 9 9 8 14 26 27 24 27 29 32 37 44 47 44 44 40 34 32 33 34 36 34 36 37 34 28 21 25 24
42 46 41 37 32 30 25 21 20 17 18 15 13 12 10 9 9 9 8 13 20 22 22 24 31 35 37 40 41 44 46 42 34 34 34 33 35 37 37 35 30 23 24 27
44 48 44 42 37 34 30 26 22 20 17 18 15 14 12 11 10 9 8 8 14 20 22 22 26 31 34 38 38 39 41 41 33 32 32 31 33 37 39 35 32 28 23 24
49 49 48 46 37 32 30 26 22 21 19 18 16 15 12 11 10 10 9 9 11 13 15 23 25 28 31 37 38 39 37 34 32 34 31 31 32 33 36 36 36 31 25 25
54 53 54 51 41 39 33 23 22 20 19 18 17 15 14 12 11 11 9 9 11 13 15 16 22 25 29 32 33 36 35 34 34 37 37 37 36 29 34 37 38 37 31 28
60 60 59 59 47 45 26 24 23 20 18 18 17 16 14 13 12 11 11 11 10 10 12 15 18 21 29 27 28 33 37 35 38 38 36 37 38 32 34 38 40 39 38 33
52 61 61 63 56 36 31 35 40 40 22 18 19 18 16 14 13 12 11 13 12 11 11 13 18 21 25 28 28 27 32 37 34 33 39 42 44 38 37 41 42 43 43 41
47 53 56 63 60 49 36 39 38 45 39 31 29 20 18 16 17 14 13 13 14 13 10 13 15 18 25 29 30 30 30 33 33 33 36 40 44 41 34 42 47 47 47 46
58 63 62 59 66 51 42 44 43 40 29 33 34 31 29 18 15 16 15 14 15 14 12 11 12 14 23 30 27 29 32 31 28 30 34 37 38 40 41 44 45 42 46 49
63 70 65 63 70 59 46 46 48 44 44 39 37 35 32 28 19 18 19 17 17 16 15 13 12 14 17 28 30 30 28 30 32 37 37 37 39 40 47 48 42 42 41 49
74 60 69 55 49 47 45 54 48 52 52 50 44 37 36 31 23 20 21 21 20 19 18 16 15 16 18 22 29 32 35 36 35 38 38 38 35 41 46 43 44 49 48 44
71 67 75 74 54 49 48 50 50 54 58 58 52 43 36 28 26 24 26 28 28 27 23 19 17 17 17 19 24 29 33 36 30 33 35 36 36 44 48 44 47 53 53 59
74 73 67 78 65 68 55 51 54 53 64 67 59 51 43 35 33 30 33 36 36 34 32 29 25 24 24 23 22 22 23 24 25 26 28 32 41 45 42 41 45 50 55 61
71 76 80 66 68 70 61 57 55 58 71 73 67 59 55 51 44 41 40 38 37 36 35 32 30 30 30 30 29 29 29 29 28 29 30 31 34 36 39 44 48 53 57 59

GFSCGP_prec_cthk_045.txt.gz
RH
15 15 14 16 22 24 23 32 41 40 38 41 41 42 43 48 46 48 54 54 51 39 25 29 32 30 31 29 29 27 26 23 25 26 28 31 31 35 39 39 41 42 46 46
15 13 10 13 17 23 23 26 36 36 35 35 38 40 42 47 40 47 53 55 53 44 25 26 28 31 29 26 27 25 24 23 22 22 24 26 30 32 34 35 38 38 39 40
12 10 11 12 14 18 22 22 25 34 34 34 36 37 41 45 46 40 48 53 56 45 33 24 25 26 27 26 26 24 23 22 24 25 26 28 30 34 35 33 31 32 34 36
14 13 12 11 11 13 17 21 23 27 32 34 36 32 39 40 47 46 39 46 49 47 41 31 23 23 22 22 26 26 27 25 24 25 24 25 27 30 30 29 27 28 29 32
15 14 15 13 9 12 12 16 22 26 29 32 31 32 26 36 41 43 36 34 42 42 38 33 28 18 17 18 21 24 26 27 27 27 27 26 27 27 29 28 26 27 28 31
16 15 15 13 11 10 11 14 18 22 27 29 25 27 23 31 30 37 45 35 34 36 36 37 32 26 19 19 20 22 24 26 27 27 26 26 27 27 28 27 26 26 27 27
18 16 15 15 14 13 12 14 17 21 23 21 21 25 19 22 26 29 41 46 25 32 36 33 33 29 22 19 16 17 19 22 24 25 25 25 26 27 27 27 28 26 27 23
21 19 15 14 13 12 13 12 12 17 15 15 20 18 16 20 24 28 34 39 26 32 34 33 33 33 26 19 18 17 15 17 20 23 24 24 25 25 27 28 27 26 26 23
23 19 16 14 14 13 14 15 9 11 14 13 13 13 13 16 20 28 31 27 26 29 34 36 37 38 33 27 24 24 25 23 18 19 22 24 26 26 25 27 26 26 28 25
25 24 19 17 16 14 13 13 15 15 16 14 11 13 10 11 14 21 22 26 28 29 35 36 37 39 37 33 26 26 30 31 31 25 22 23 22 26 27 28 27 25 25 27
31 26 24 20 18 16 16 17 15 14 12 12 11 8 9 9 9 15 20 26 33 28 24 34 38 40 44 39 33 29 29 34 38 37 34 29 26 26 29 31 29 26 24 25
37 30 27 24 21 19 18 17 17 16 19 12 11 9 8 8 9 11 16 24 29 29 33 35 33 37 41 42 36 31 34 34 35 36 37 34 30 28 29 31 29 29 25 24
39 37 32 28 25 22 20 19 19 18 15 17 14 10 8 8 8 7 11 16 25 29 31 32 35 35 35 39 37 33 34 35 32 37 35 33 32 31 30 31 32 30 27 23
40 41 36 28 27 30 27 23 21 20 19 15 14 11 10 9 8 9 8 13 20 28 28 29 31 30 31 33 38 39 39 39 40 37 34 31 30 31 33 35 33 30 27 25
43 43 41 38 35 33 31 28 26 23 19 18 15 15 13 11 9 9 9 9 14 23 27 27 28 27 30 34 36 40 42 41 40 39 35 30 29 31 34 33 33 34 29 27
47 44 45 38 36 33 32 30 27 24 22 20 18 16 15 13 12 10 9 8 9 12 23 24 24 25 27 32 33 36 41 41 43 45 41 33 30 29 31 33 34 36 36 29
49 45 44 40 38 36 32 27 27 26 23 21 20 17 16 14 13 12 11 10 10 9 11 19 22 20 19 23 33 36 38 42 43 41 40 34 28 28 30 33 36 36 36 39
51 51 50 40 41 41 26 27 29 26 23 21 19 18 16 15 14 13 11 11 10 9 9 11 14 16 17 18 27 30 34 35 37 36 36 33 33 33 37 39 35 36 38 39
42 51 46 42 40 32 28 28 35 35 27 26 21 18 17 15 15 14 13 12 11 10 10 11 12 13 14 16 18 23 28 34 32 33 34 36 37 37 38 40 36 34 39 41
42 44 51 46 39 37 29 29 30 36 32 34 30 27 23 19 17 15 15 13 12 12 13 12 12 12 13 15 20 24 27 29 30 27 33 34 38 41 41 43 44 44 41 42
51 50 46 44 46 38 34 38 45 45 31 36 35 32 30 30 20 16 16 15 14 14 13 14 13 10 12 16 18 22 26 28 29 31 33 32 33 39 43 49 53 55 55 60
54 62 59 47 46 43 33 41 44 42 39 38 37 37 36 33 28 24 17 17 16 15 14 14 13 12 11 13 17 20 23 29 33 33 32 33 35 40 44 47 49 55 58 66
54 48 56 48 38 33 34 40 48 50 44 39 40 39 40 35 31 29 25 22 20 17 16 16 15 13 12 13 15 17 22 28 30 32 30 31 32 39 41 42 41 48 57 68
60 58 64 54 42 44 35 36 40 49 44 42 41 41 45 39 33 30 27 24 25 22 19 18 18 17 16 15 16 18 28 31 33 30 36 36 35 38 40 40 42 46 46 46
68 65 63 58 46 37 41 39 42 44 40 43 44 52 55 45 37 30 29 30 27 27 23 22 22 23 20 20 20 20 23 27 31 35 40 40 41 41 38 40 42 41 45 46
70 68 65 47 50 53 43 49 55 52 48 47 50 67 69 58 47 42 36 36 35 35 33 30 28 27 25 23 23 24 23 24 27 31 34 33 31 31 31 32 35 42 51 52

GFSCGP_prec_cthk_048.txt.gz
RH
17 18 14 14 21 23 28 28 37 42 44 44 47 50 49 48 51 42 48 50 48 45 35 30 32 33 33 33 29 29 30 29 30 30 31 32 34 35 37 39 41 40 42 43
15 14 13 14 14 20 23 23 31 40 39 37 41 44 45 43 50 41 48 50 50 46 37 25 29 31 29 30 26 26 26 27 26 28 28 29 32 32 34 37 38 36 37 41
13 12 12 13 15 18 22 22 23 36 39 34 35 38 42 41 42 45 44 46 52 47 43 27 25 26 28 28 24 26 26 26 23 26 29 28 29 30 32 35 34 33 32 33
16 14 11 12 12 12 16 22 23 30 36 35 34 36 40 40 44 45 42 43 42 44 45 37 23 25 26 25 24 27 28 26 26 23 27 26 26 29 32 33 35 32 30 31
17 15 14 12 10 10 11 17 23 25 30 34 31 30 29 37 39 42 44 37 39 38 41 39 29 20 23 24 25 26 27 24 25 23 25 26 25 27 33 34 32 27 28 25
17 17 15 13 12 11 11 12 18 24 24 26 23 26 23 28 33 36 41 39 33 36 38 39 35 29 22 24 25 26 25 21 23 22 21 23 25 26 30 32 32 32 30 31
20 17 18 15 15 13 11 13 15 20 22 20 20 23 20 25 26 30 32 38 37 32 32 37 38 34 26 22 22 21 21 20 21 22 22 22 23 24 28 29 29 30 30 31
23 20 16 16 15 14 12 12 11 18 16 17 19 18 17 20 22 24 30 34 37 36 29 30 34 31 30 25 19 18 18 17 19 20 20 22 23 25 28 28 28 28 29 31
23 23 19 17 16 14 14 14 10 11 12 14 13 14 14 15 18 21 24 30 36 34 25 31 33 34 33 31 23 17 15 14 16 17 18 20 22 24 25 25 25 28 27 28
27 26 22 20 18 15 15 13 11 10 14 15 11 11 13 12 14 18 22 26 33 33 25 28 31 33 34 34 30 25 21 16 14 16 17 18 19 22 24 26 25 27 26 23
31 27 26 22 18 16 16 16 14 12 11 13 14 10 10 10 12 14 19 25 31 27 21 28 34 37 38 39 36 33 29 27 27 27 28 25 21 22 23 24 25 25 26 24
34 32 31 23 22 19 17 16 14 14 16 12 10 10 9 8 8 12 15 22 22 24 25 31 34 38 39 37 37 36 31 30 30 30 35 33 29 23 19 18 22 25 27 26
41 32 34 32 26 22 19 17 16 16 13 15 14 11 11 9 10 11 16 21 22 24 27 27 32 34 34 35 38 38 41 33 32 35 37 35 33 27 21 20 23 25 26 27
42 37 33 29 28 25 24 19 17 16 16 15 15 14 11 10 10 9 10 18 22 27 29 30 25 26 28 32 35 37 40 41 34 37 39 34 31 26 24 26 26 26 26 27
41 41 41 38 37 32 27 22 19 18 18 17 16 16 15 13 11 12 12 15 19 26 28 29 31 31 30 31 30 32 36 41 37 38 39 34 33 31 30 31 31 31 30 30
45 45 43 41 36 33 31 28 25 22 19 19 18 18 17 17 14 11 12 11 14 18 23 26 31 30 31 31 31 33 32 36 40 38 37 38 37 34 31 32 33 35 34 35
49 44 43 40 36 35 34 28 26 25 23 22 21 21 20 18 17 15 11 11 11 13 16 21 27 28 28 29 30 30 35 35 41 40 40 41 41 40 36 35 34 33 35 38
49 49 42 40 41 43 27 28 28 28 26 25 23 22 21 20 19 17 16 14 11 10 13 17 20 26 27 27 27 30 33 37 36 42 41 40 40 42 44 36 32 34 35 36
45 47 45 45 41 34 31 31 31 31 31 28 26 26 23 21 19 18 17 15 13 12 10 11 13 16 20 23 24 26 28 31 38 37 38 37 36 41 40 35 34 38 44 49
46 45 49 42 43 39 35 34 33 36 37 35 35 34 30 24 21 19 18 17 15 13 12 11 11 11 13 17 19 20 22 24 31 32 30 37 35 38 35 37 41 46 48 53
47 46 45 44 42 36 35 41 47 43 54 51 44 42 39 33 29 25 22 21 20 18 15 13 12 11 10 12 14 16 20 19 22 29 34 32 34 36 38 39 43 46 50 53
58 49 40 40 42 40 36 36 48 58 55 51 46 43 42 38 34 30 28 23 20 19 17 15 14 13 13 13 11 12 14 15 23 27 30 31 33 36 40 39 39 43 49 53
49 49 56 42 32 34 41 39 42 45 46 46 44 42 39 33 32 31 31 29 25 22 21 17 16 15 15 14 12 11 11 15 22 28 29 30 34 36 38 39 39 45 50 52
46 47 49 51 43 46 45 37 41 47 43 43 43 40 36 31 30 32 34 32 28 25 20 21 19 17 19 16 13 12 12 12 19 25 29 33 36 36 38 41 42 43 45 46
43 53 52 47 41 43 45 37 29 34 46 44 45 43 39 35 33 36 36 33 30 27 30 26 23 24 24 19 16 15 14 15 16 20 23 30 34 33 40 40 44 41 42 46
53 49 51 45 43 43 41 37 37 39 34 32 32 33 34 36 36 43 43 38 36 35 31 30 30 29 28 26 21 25 20 19 21 25 34 39 38 42 42 41 44 44 43 42